Weather History for George, South Africa

Change the Weather History Date:

Monday, March 4, 2013

  Actual Average Record
Temperature  
Mean Temperature 70 °F -  
Max Temperature 86 °F 73 °F 86 °F (2013)
Min Temperature 55 °F 56 °F 48 °F (2006)
Cooling Degree Days 6    
Growing Degree Days 20 (Base 50)    
Moisture  
Dew Point 60 °F    
Average Humidity 68    
Maximum Humidity 88    
Minimum Humidity 37    
Precipitation  
Precipitation 0.00 in - - ()
Sea Level Pressure  
Sea Level Pressure 29.95 in    
Wind  
Wind Speed 4 mph ()    
Max Wind Speed 8 mph    
Max Gust Speed -    
Visibility 11.2 miles    
Events      
Averages and records for this station are not official NWS values.
T = Trace of Precipitation, MM = Missing Value Source: Averaged Metar Reports

Daily Weather History Graph

Daily Weather History Graph

Search for Another Location

Airport:

Trip Planner

Search our weather history database for the weather conditions in past years. The results will help you decide how hot, cold, wet, or windy it might be!

Date:

Astronomy

Mar. 04, 2013 Rise Set
Actual Time 6:20 AM SAST 7:02 PM SAST
Civil Twilight 5:55 AM SAST 7:28 PM SAST
Nautical Twilight 5:25 AM SAST 7:58 PM SAST
Astronomical Twilight 4:55 AM SAST 8:28 PM SAST
Moon 11:35 PM SAST (3/4) 1:03 PM SAST (3/4)
Length of Visible Light 13h 32m
Length of Day
12h 42m
Waning Gibbous, 56% of the Moon is Illuminated
Mar 4
Waning Gibbous
Mar 4
Last Quarter
Mar 11
New
Mar 19
First Quarter
Mar 27
Full

Hourly Weather History & Observations

Time (SAST) Temp. Heat Index Dew Point Humidity Pressure Visibility Wind Dir Wind Speed Gust Speed Precip Events Conditions
12:00 AM 60.8 °F - 57.2 °F 88% 30.12 in - Variable 1.2 mph - N/A   Clear
1:00 AM 60.8 °F - 55.4 °F 82% 30.12 in - ENE 5.8 mph - N/A   Clear
2:00 AM 62 °F - 56 °F 76% 30.10 in 12 mi ESE 6.9 mph - -  
2:00 AM 60.8 °F - 55.4 °F 82% 30.09 in - ESE 3.5 mph - N/A   Clear
3:00 AM 59.0 °F - 53.6 °F 82% 30.06 in - NNW 3.5 mph - N/A   Clear
4:00 AM 60.8 °F - 53.6 °F 77% 30.06 in - North 3.5 mph - N/A   Clear
5:00 AM 57 °F - 53 °F 81% 30.06 in 12 mi North 2.3 mph - -  
5:00 AM 57.2 °F - 51.8 °F 82% 30.04 in - Variable 2.3 mph - N/A   Clear
6:00 AM 57.2 °F - 51.8 °F 82% 30.04 in - NNW 3.5 mph - N/A   Clear
7:00 AM 57.2 °F - 53.6 °F 88% 30.04 in - NW 3.5 mph - N/A   Clear
8:00 AM 63 °F - 57 °F 75% 30.04 in 12 mi West 2.3 mph - -  
8:00 AM 62.6 °F - 57.2 °F 82% 30.04 in - Variable 2.3 mph - N/A   Clear
9:00 AM 69.8 °F - 57.2 °F 64% 30.04 in - SE 3.5 mph - N/A   Clear
10:00 AM 73.4 °F - 60.8 °F 65% 30.01 in - Variable 2.3 mph - N/A   Clear
11:00 AM 81 °F - 60 °F 38% 29.99 in 12 mi East 2.3 mph - -  
11:00 AM 80.6 °F 81.5 °F 60.8 °F 51% 29.98 in - Variable 2.3 mph - N/A   Clear
12:00 PM 82.4 °F 82.9 °F 60.8 °F 48% 29.95 in - SSE 6.9 mph - N/A   Clear
1:00 PM 82.4 °F 82.5 °F 59.0 °F 45% 29.92 in - SE 5.8 mph - N/A   Clear
2:00 PM 85 °F - 63 °F 37% 29.87 in 12 mi SSE 8.1 mph - -  
2:00 PM 84.2 °F 85.0 °F 62.6 °F 48% 29.89 in - SSE 8.1 mph - N/A   Clear
3:00 PM 86.0 °F 86.6 °F 62.6 °F 45% 29.86 in - SE 6.9 mph - N/A   Clear
4:00 PM 86.0 °F 86.6 °F 62.6 °F 45% 29.83 in - East 8.1 mph - N/A   Clear
5:00 PM 83 °F - 64 °F 42% 29.81 in 12 mi East 8.1 mph - -  
5:00 PM 82.4 °F 83.9 °F 64.4 °F 54% 29.83 in - ESE 8.1 mph - N/A   Clear
6:00 PM 80.6 °F 82.3 °F 64.4 °F 58% 29.80 in - ESE 5.8 mph - N/A   Clear
7:00 PM 75.2 °F - 64.4 °F 69% 29.80 in - SE 4.6 mph - N/A   Clear
8:00 PM 72 °F - 66 °F 75% 29.80 in 12 mi East 3.5 mph - -  
8:00 PM 71.6 °F - 66.2 °F 83% 29.80 in - East 2.3 mph - N/A   Clear
9:00 PM 69.8 °F - 64.4 °F 83% 29.83 in - WNW 6.9 mph - N/A   Clear
10:00 PM 68.0 °F - 64.4 °F 88% 29.83 in 5.6 mi West 6.9 mph - N/A   Unknown
11:00 PM 68.0 °F - 64.4 °F 88% 29.83 in - NNW 5.8 mph - N/A   Clear